AFR566 LFPG-EGLL

Flight info

Callsign AFR566
Flight time 0h 32m
Altitude 35000
Route OPALE6G OPALE DCT KESAX DCT DIMAL DCT ALESO BIG BIG1E EGLL/09L
Aircraft A346/H-SDE3E/C

Departure

Time 2026-05-06 21:13
Airport Charles de Gaulle International Airport (LFPG)

Arrival

Time 2026-05-06 21:45
Airport London Heathrow Airport (EGLL)
Time Latitude Longitude Altitude Speed Heading
2026-05-06 21:10 49.01625 2.51286 365 ft 10 kts 356°
2026-05-06 21:10 49.01702 2.51276 366 ft 11 kts 355°
2026-05-06 21:10 49.01778 2.51265 369 ft 10 kts 356°
2026-05-06 21:10 49.01851 2.51257 371 ft 10 kts 356°
2026-05-06 21:11 49.01927 2.51247 372 ft 11 kts
2026-05-06 21:11 49.01998 2.51287 374 ft 10 kts 42°
2026-05-06 21:11 49.02049 2.51370 375 ft 11 kts 61°
2026-05-06 21:11 49.02064 2.51431 375 ft 0 kts 83°
2026-05-06 21:12 49.02076 2.51575 378 ft 45 kts 84°
2026-05-06 21:12 49.02125 2.52465 382 ft 122 kts 85°
2026-05-06 21:12 49.02214 2.54101 432 ft 178 kts 86°
2026-05-06 21:12 49.02321 2.56051 870 ft 197 kts 85°
2026-05-06 21:13 49.02470 2.59103 1605 ft 234 kts 86°
2026-05-06 21:13 49.02542 2.60750 2096 ft 240 kts 86°
2026-05-06 21:13 49.02674 2.63365 2663 ft 255 kts 85°
2026-05-06 21:13 49.02826 2.66086 3365 ft 262 kts 85°
2026-05-06 21:14 49.02987 2.68895 3978 ft 275 kts 85°
2026-05-06 21:14 49.03174 2.71901 4482 ft 293 kts 81°
2026-05-06 21:14 49.03930 2.74864 4886 ft 313 kts 53°
2026-05-06 21:14 49.05627 2.76960 5470 ft 325 kts 23°
2026-05-06 21:15 49.07831 2.77571 6060 ft 326 kts 355°
2026-05-06 21:15 49.09967 2.76544 6471 ft 327 kts 330°
2026-05-06 21:15 49.11850 2.74606 6902 ft 328 kts 323°
2026-05-06 21:15 49.13668 2.72522 7763 ft 329 kts 323°
2026-05-06 21:16 49.15471 2.70456 8704 ft 328 kts 323°
2026-05-06 21:16 49.17291 2.68409 9631 ft 327 kts 324°
2026-05-06 21:16 49.19118 2.66386 10560 ft 325 kts 324°
2026-05-06 21:16 49.20953 2.64374 11497 ft 322 kts 324°
2026-05-06 21:17 49.22763 2.62400 12428 ft 318 kts 324°
2026-05-06 21:17 49.24555 2.60453 13361 ft 313 kts 325°
2026-05-06 21:17 49.26296 2.58564 14279 ft 308 kts 325°
2026-05-06 21:17 49.28004 2.56712 15198 ft 300 kts 325°
2026-05-06 21:18 49.29677 2.54896 16120 ft 292 kts 325°
2026-05-06 21:18 49.31308 2.53125 16978 ft 284 kts 325°
2026-05-06 21:18 49.32904 2.51392 17584 ft 285 kts 325°
2026-05-06 21:18 49.34539 2.49615 17923 ft 296 kts 325°
2026-05-06 21:19 49.36292 2.47709 17988 ft 318 kts 325°
2026-05-06 21:19 49.38147 2.45691 17997 ft 340 kts 325°
2026-05-06 21:19 49.40160 2.43498 18000 ft 363 kts 325°
2026-05-06 21:19 49.42254 2.41216 17997 ft 381 kts 325°
2026-05-06 21:20 49.44433 2.38838 17996 ft 385 kts 325°
2026-05-06 21:20 49.46601 2.36470 17996 ft 386 kts 325°
2026-05-06 21:20 49.48783 2.34082 17997 ft 386 kts 324°
2026-05-06 21:20 49.50992 2.31649 17997 ft 386 kts 324°
2026-05-06 21:21 49.53167 2.29252 17997 ft 386 kts 324°
2026-05-06 21:21 49.55369 2.26827 17997 ft 386 kts 324°
2026-05-06 21:21 49.58492 2.23387 17997 ft 386 kts 324°
2026-05-06 21:21 49.62846 2.18590 17997 ft 386 kts 324°
2026-05-06 21:22 49.67178 2.13809 17997 ft 386 kts 324°
2026-05-06 21:22 49.71491 2.09039 17997 ft 386 kts 324°
2026-05-06 21:22 49.75870 2.04183 17997 ft 386 kts 324°
2026-05-06 21:22 49.80175 1.99399 17997 ft 386 kts 324°
2026-05-06 21:23 49.84482 1.94601 17997 ft 386 kts 324°
2026-05-06 21:23 49.88739 1.89849 17997 ft 386 kts 324°
2026-05-06 21:23 49.93005 1.84776 17997 ft 386 kts 321°
2026-05-06 21:23 49.97156 1.79641 17997 ft 386 kts 321°
2026-05-06 21:24 50.01328 1.74482 17997 ft 386 kts 322°
2026-05-06 21:24 50.05572 1.69318 17997 ft 386 kts 325°
2026-05-06 21:24 50.10169 1.65087 17997 ft 386 kts 334°
2026-05-06 21:24 50.15023 1.61587 17997 ft 386 kts 335°
2026-05-06 21:25 50.19868 1.58120 17997 ft 386 kts 335°
2026-05-06 21:25 50.24787 1.54558 17997 ft 386 kts 335°
2026-05-06 21:25 50.29546 1.51091 17997 ft 386 kts 335°
2026-05-06 21:25 50.34375 1.47559 17997 ft 386 kts 335°
2026-05-06 21:26 50.39195 1.44025 17997 ft 386 kts 335°
2026-05-06 21:26 50.44069 1.40444 17997 ft 386 kts 335°
2026-05-06 21:26 50.50167 1.34890 17998 ft 386 kts 319°
2026-05-06 21:26 50.52708 1.30957 17998 ft 386 kts 312°
2026-05-06 21:27 50.56313 1.24691 17997 ft 386 kts 312°
2026-05-06 21:27 50.59950 1.18430 17997 ft 386 kts 312°
2026-05-06 21:27 50.63646 1.12382 17997 ft 386 kts 316°
2026-05-06 21:27 50.67435 1.06643 17997 ft 386 kts 316°
2026-05-06 21:28 50.71141 1.00984 17997 ft 386 kts 316°
2026-05-06 21:28 50.74932 0.95145 17997 ft 386 kts 316°
2026-05-06 21:28 50.78704 0.89308 17997 ft 386 kts 315°
2026-05-06 21:28 50.82426 0.83529 17908 ft 362 kts 315°
2026-05-06 21:29 50.85881 0.78149 17578 ft 343 kts 315°
2026-05-06 21:29 50.89253 0.72887 16806 ft 340 kts 315°
2026-05-06 21:29 50.92615 0.67631 15715 ft 347 kts 315°
2026-05-06 21:29 50.96053 0.62244 14619 ft 353 kts 315°
2026-05-06 21:30 50.99528 0.56788 13525 ft 357 kts 315°
2026-05-06 21:30 51.03021 0.51291 12424 ft 355 kts 315°
2026-05-06 21:30 51.06307 0.46107 12002 ft 312 kts 315°
2026-05-06 21:30 51.09152 0.41608 11995 ft 285 kts 315°
2026-05-06 21:31 51.11888 0.37295 11997 ft 283 kts 316°
2026-05-06 21:31 51.14638 0.32957 11997 ft 283 kts 315°
2026-05-06 21:31 51.17380 0.28589 11997 ft 283 kts 315°
2026-05-06 21:31 51.20145 0.24182 11997 ft 283 kts 315°
2026-05-06 21:32 51.22890 0.19802 11997 ft 283 kts 315°
2026-05-06 21:32 51.28379 0.11022 11997 ft 283 kts 315°
2026-05-06 21:32 51.31116 0.06633 11997 ft 283 kts 315°
2026-05-06 21:33 51.33144 0.01988 11848 ft 278 kts 285°
2026-05-06 21:33 51.33452 -0.01067 11453 ft 279 kts 275°
2026-05-06 21:33 51.33603 -0.04184 11073 ft 279 kts 274°
2026-05-06 21:33 51.33742 -0.07290 10733 ft 278 kts 274°
2026-05-06 21:34 51.33888 -0.10360 10403 ft 276 kts 274°
2026-05-06 21:34 51.34041 -0.13438 10070 ft 275 kts 275°
2026-05-06 21:34 51.34198 -0.16476 9741 ft 274 kts 275°
2026-05-06 21:34 51.34356 -0.19478 9416 ft 272 kts 275°
2026-05-06 21:35 51.34517 -0.22532 9086 ft 271 kts 275°
2026-05-06 21:35 51.34676 -0.25522 8763 ft 270 kts 275°
2026-05-06 21:35 51.34833 -0.28493 8443 ft 268 kts 275°
2026-05-06 21:35 51.34990 -0.31475 8121 ft 267 kts 275°
2026-05-06 21:36 51.35144 -0.34410 7805 ft 266 kts 275°
2026-05-06 21:36 51.35300 -0.37376 7446 ft 267 kts 275°
2026-05-06 21:36 51.35457 -0.40385 6722 ft 282 kts 275°
2026-05-06 21:36 51.35618 -0.43507 5965 ft 286 kts 275°
2026-05-06 21:37 51.35783 -0.46694 5212 ft 289 kts 275°
2026-05-06 21:37 51.35946 -0.49878 4465 ft 291 kts 275°
2026-05-06 21:37 51.36111 -0.53118 3748 ft 291 kts 275°
2026-05-06 21:37 51.36271 -0.56285 3333 ft 280 kts 275°
2026-05-06 21:38 51.36422 -0.59290 3206 ft 260 kts 275°
2026-05-06 21:38 51.36562 -0.62074 3202 ft 244 kts 275°
2026-05-06 21:38 51.36693 -0.64707 3194 ft 230 kts 275°
2026-05-06 21:38 51.36678 -0.67205 3187 ft 223 kts 255°
2026-05-06 21:39 51.35982 -0.69424 3200 ft 223 kts 231°
2026-05-06 21:39 51.35173 -0.71511 3188 ft 223 kts 255°
2026-05-06 21:39 51.35144 -0.73953 3192 ft 223 kts 289°
2026-05-06 21:39 51.35931 -0.76089 3200 ft 222 kts 313°
2026-05-06 21:40 51.37064 -0.77704 3038 ft 219 kts 322°
2026-05-06 21:40 51.38385 -0.78878 2811 ft 219 kts 349°
2026-05-06 21:40 51.39916 -0.79094 2827 ft 225 kts 360°
2026-05-06 21:40 51.41486 -0.79057 2813 ft 228 kts
2026-05-06 21:41 51.43092 -0.79019 2804 ft 229 kts
2026-05-06 21:41 51.44673 -0.78804 2788 ft 229 kts 19°
2026-05-06 21:41 51.46018 -0.77504 2801 ft 229 kts 43°
2026-05-06 21:41 51.47120 -0.75683 2801 ft 229 kts 56°
2026-05-06 21:42 51.47692 -0.73322 2795 ft 229 kts 85°
2026-05-06 21:42 51.47729 -0.70776 2810 ft 229 kts 90°
2026-05-06 21:42 51.47713 -0.68209 2638 ft 229 kts 90°
2026-05-06 21:42 51.47704 -0.65638 2201 ft 232 kts 90°
2026-05-06 21:43 51.47707 -0.63143 1850 ft 215 kts 89°
2026-05-06 21:43 51.47713 -0.60847 1563 ft 198 kts 89°
2026-05-06 21:43 51.47719 -0.58709 1312 ft 186 kts 89°
2026-05-06 21:43 51.47725 -0.56701 1076 ft 176 kts 89°
2026-05-06 21:44 51.47729 -0.54750 859 ft 175 kts 89°
2026-05-06 21:44 51.47735 -0.52823 636 ft 172 kts 89°
2026-05-06 21:44 51.47741 -0.50906 413 ft 170 kts 89°
2026-05-06 21:44 51.47747 -0.49034 188 ft 167 kts 89°
2026-05-06 21:45 51.47753 -0.47206 96 ft 152 kts 89°
2026-05-06 21:45 51.47755 -0.45821 90 ft 83 kts 89°
2026-05-06 21:45 51.47756 -0.45274 98 ft 36 kts 93°
2026-05-06 21:45 51.47622 -0.45056 101 ft 16 kts 197°
2026-05-06 21:46 51.47608 -0.45098 101 ft 4 kts 255°
2026-05-06 21:46 51.47588 -0.45160 100 ft 6 kts 217°
2026-05-06 21:46 51.47531 -0.45164 100 ft 9 kts 154°
2026-05-06 21:46 51.47511 -0.45097 101 ft 6 kts 92°
2026-05-06 21:47 51.47509 -0.45016 103 ft 7 kts 91°
2026-05-06 21:47 51.47508 -0.44917 103 ft 10 kts 91°
2026-05-06 21:47 51.47508 -0.44788 102 ft 13 kts 87°
2026-05-06 21:47 51.47506 -0.44619 100 ft 15 kts 106°
2026-05-06 21:48 51.47462 -0.44571 101 ft 5 kts 190°
2026-05-06 21:48 51.47425 -0.44556 101 ft 5 kts 144°
2026-05-06 21:48 51.47413 -0.44493 101 ft 7 kts 94°
2026-05-06 21:48 51.47413 -0.44404 100 ft 5 kts 95°
2026-05-06 21:49 51.47413 -0.44401 100 ft 0 kts 95°
2026-05-06 21:49 51.47413 -0.44404 100 ft 2 kts 95°
2026-05-06 21:49 51.47414 -0.44453 101 ft 0 kts 87°
2026-05-06 21:50 51.47414 -0.44452 101 ft 1 kts 87°
2026-05-06 21:50 51.47415 -0.44413 100 ft 0 kts 90°
2026-05-06 21:50 51.47415 -0.44422 100 ft 2 kts 90°